Regional Weather Roundup
Issued by NWS Wakefield, VA

Home | Current Version | Previous Version | Graphics & Text | Print | Product List | Glossary Off
Versions: 1 2 3 4 5 6 7 8 9 10 11 12 13 14 15 16 17 18 19 20 21 22 23 24 25 26 27 28 29 30 31 32 33 34 35 36 37 38 39 40 41 42 43 44 45 46 47 48 49 50

085
ASUS41 KAKQ 220915
RWRAKQ

REGIONAL WEATHER ROUNDUP
NATIONAL WEATHER SERVICE WAKEFIELD VA
500 AM EDT SAT JUL 22 2017

Note: "fair" indicates few or no clouds below 12,000 feet with no
significant weather and/or obstructions to visibility. * = Denotes
station may not report precipitation (e.g., rain,snow,etc.),
thunder or fog.

VAZ042-051-052>054-056-221000-
NORTHERN VIRGINIA

CITY           SKY/WX    TMP DP  RH WIND       PRES   REMARKS
WASH NATIONAL  CLOUDY    81  74  79 NW7       29.87F
DULLES         CLOUDY    77  69  76 NW3       29.89S
FORT BELVOIR   CLOUDY    81  70  70 NW6       29.87S
QUANTICO       CLOUDY    79  73  82 CALM      29.88S
FREDERICKSBRG* CLEAR     75  72  88 CALM      29.88R
STAFFORD*      MOCLDY    73  73  98 CALM      29.92S
WARRENTON      PTCLDY    73  68  87 CALM      29.89S
CULPEPER*      CLEAR     71  71  99 CALM      29.90F FOG
MANASSAS*      CLOUDY    72  71  97 CALM      29.89S
LEESBURG*      CLEAR     77  73  88 NW3       29.90S
WINCHESTER     CLEAR     68  68 100 CALM      29.92S FOG
FRONT ROYAL*   CLOUDY    72  70  94 SW5       29.92S
LURAY*         MOSUNNY   70  70 100 CALM      29.95S FOG
$$

VAZ048-049-060>072-079>083-221000-
CENTRAL AND SOUTH CENTRAL VIRGINIA

CITY           SKY/WX    TMP DP  RH WIND       PRES   REMARKS
RICHMOND       PTCLDY    75  71  87 S5        29.89F
CHESTERFIELD*  FAIR      74  71  91 CALM      29.90F
PETERSBURG*    CLEAR     71  69  94 CALM      29.91F
HANOVER        CLEAR     75  69  81 CALM      29.90F
TAPPAHANNOCK*  CLEAR     75  72  89 SW5       29.89S
QUINTON*       FAIR      75  74  98 CALM      29.89F
CHARLOTTSVILLE CLEAR     76  69  79 CALM      29.91S
GORDONSVILLE*  MOSUNNY   71  69  96 SW3       29.90F
ORANGE*        PTCLDY    70  68  94 CALM      29.90S
LOUISA*        PTCLDY    70  66  88 CALM      29.90S
BUMPASS*       FAIR      71  71 100 CALM      29.90S
FARMVILLE*     PTCLDY    71  69  93 CALM      29.91S FOG
CREWE*         FAIR      72  67  87 CALM      29.91F
FORT PICKETT*  FAIR     N/A N/A N/A SW3       29.92F
CHASE CITY*    CLOUDY    75  74  99 CALM      29.93F
CLARKSVILLE*   FAIR      72  72 100 CALM      29.93F
SOUTH HILL*    CLEAR     74  73  97 CALM      29.98F
LAWRENCEVILLE* FAIR      74  71  89 CALM      29.92S
EMPORIA*       CLEAR     73  72  94 SE3       29.93F
$$

VAZ088>098-221000-
SOUTHEAST VIRGINIA

CITY           SKY/WX    TMP DP  RH WIND       PRES   REMARKS
NORFOLK        CLEAR     79  73  82 SW9       29.90S
VIRGINIA BEACH PTCLDY    77  71  82 SW9       29.90R
NORFOLK NAVAL  PTCLDY    79  72  79 SW6       29.91S
WEST POINT*    CLEAR     77  72  84 W6        29.90S
SALUDA*        FAIR      77  75  92 SW3       29.88S
NEWPORT NEWS   NOT AVBL
LANGLEY AFB    CLEAR     78  74  85 SW7       29.89S
FORT EUSTIS    CLEAR     77  74  90 SW5       29.87F
WILLIAMSBURG*  CLEAR     81  73  78 CALM      29.90S
HR EXEC AP*    FAIR      75  70  83 SW3       29.89S
FRANKLIN*      CLEAR     75  72  88 SW3       29.92S
US460-WAKEFLD  CLEAR     76  74  93 SW5       29.91S
$$

VAZ020-022-025-037-045-221000-
WEST CENTRAL AND SOUTHWEST VIRGINIA

CITY           SKY/WX    TMP DP  RH WIND       PRES   REMARKS
STAUNTON*      MOCLDY    65  65  99 CALM      29.99S FOG
WAYNESBORO*    SUNNY     68  68 100 W5        29.98F
HOT SPRINGS VA PTCLDY    68  63  83 W9        30.12F
LYNCHBURG      CLEAR     71  70  96 CALM      29.95F FOG
DANVILLE       CLEAR     72  72 100 SW5       29.94F
SOUTH BOSTON*  PTSUNNY   73  71  95 CALM      29.94S
MARTINSVILLE   CLEAR     70  69  96 CALM      29.99S FOG
ROANOKE        CLEAR     74  69  85 N6        29.99F
BLACKSBURG     CLEAR     70  68  93 CALM      30.07F
DUBLIN*        CLEAR     70  66  85 CALM      30.06S
MARION*        CLEAR     68  65  88 CALM      30.10S FOG
HILLSVILLE*    CLEAR     70  65  86 CALM      30.07S
RICHLANDS*     FAIR      72  66  80 CALM      30.09S
WISE*          CLEAR     72  72 100 CALM      30.09S
ABINGDON*      CLEAR     72  70  94 CALM      30.06S
$$

MDZ021>025-VAZ099-100-221000-
SOUTHERN MARYLAND AND THE DELMARVA PENINSULA

CITY           SKY/WX    TMP DP  RH WIND       PRES   REMARKS
PATUXENT RIVER CLEAR     78  74  87 W8        29.85S
BAY BRIDGE APT CLEAR     81  75  83 N3        29.85S
LEONARDTOWN    PTCLDY    75  70  83 W5        29.88S
DOVER          PTCLDY    76  76 100 CALM      29.84F
GEORGETOWN     CLOUDY    77  73  87 E6        29.87S
EASTON         CLOUDY    80  76  89 CALM      29.90R
CAMBRIDGE      CLEAR     79  75  89 SW5       29.85S
SALISBURY      NOT AVBL
OCEAN CITY     CLOUDY    81  76  84 NE7       29.87R
WALLOPS ISLAND CLOUDY    81  77  88 SW5       29.86S
ACCOMACK*      CLEAR     80  76  87 SW3       29.87F
$$

NCZ012>017-030>032-221000-
NORTH CENTRAL AND EASTERN NORTH CAROLINA

CITY           SKY/WX    TMP DP  RH WIND       PRES   REMARKS
ROANOKE RAPIDS FAIR      73  72  94 SW7       29.93S
RALEIGH        PTCLDY    76  72  87 SW7       29.96S
ELIZABETH CITY NOT AVBL
AHOSKIE*         N/A     74  73  94 CALM      29.93S
EDENTON*       CLEAR     81  75  82 SW8       29.95S
CURRITUCK*     CLEAR     79  76  91 SW9       29.92S
KILL DEVIL HLS CLEAR     80  73  79 CALM      29.93S
MANTEO         CLEAR     80  74  83 W12       29.95S
CAPE HATTERAS  CLEAR     76  74  93 SW9       29.97S
TARBORO*       NOT AVBL
GOLDSBORO      PTCLDY    78  78 100 SW7       29.94F
WASHINGTON     PTCLDY    77  73  88 SW5       29.96S
GREENVILLE     PTCLDY    77  73  88 SW5       29.97S
NEW BERN       CLEAR     76  75  97 SW6       29.98S
WILMINGTON     CLEAR     78  77  96 SW7       29.99R
$$

VAZ048-221000-
ELSEWHERE

CITY           SKY/WX    TMP DP  RH WIND       PRES   REMARKS
HARRISBURG PA  PTCLDY    75  73  93 NW6       29.88R
BALTIMORE      PTCLDY    77  75  93 NW6       29.86S
ANNAPOLIS      CLEAR     78  78 100 W3        29.85R
ANDREWS AFB    CLOUDY    80  73  78 NW5       29.86S
PHILADELPHIA   PTCLDY    81  73  76 NW5       29.86S
HENDERSON NC   CLEAR     73  70  91 SW5       29.94S
GREENSBORO     CLEAR     76  74  93 SW5       29.96F
ROCKY MOUNT    CLEAR     75  74  96 S5        29.95S
$$

VAZ100-221000-
MARINE

STATION/POSITION TIME  TEMP    WIND        PRES    WAVE   SWELL
                       AIR SEA DIR/SP/G            HT/PER HT/PER
                 (UTC) (F)     (DEG/KT/KT) (MB)    (FT/S) (FT/S)
BRANDYWINE LGT   0842   78      70/  7/ 10 1011.4F
CAPE MAY NJ      0848   74 72   80/  2/  4 1010.6F
LEWES DE         0848   75 73   80/  8/  9 1010.8F
15NM E FENWICK I 0850   76 75   10/  4/  6 1012.1R   2/ 6   2/ 6
OCEAN-CITY-INLET 0848   81 76   30/  5/  6 1011.7R
WACHAPREAGUE VA  0848   80 85  250/  3/  5 1011.5F
THOMAS POINT MD  0900   83 83  360/  7/  7   N/A
GOOSES REEF MD   0900   81 84  330/  8/ 10 1011.6
COVE POINT MD    0848   79     270/  5/  7 1011.4S
SOLOMONS ISLAND  0848   80 85  270/  4/  6   N/A
BISHOPS HEAD MD  0848   83 86  240/  9/ 11 1011.0F
PINEY POINT MD   0848          290/ 12/ 13   N/A
POTOMAC MD       0900   81 84  270/ 12/ 14 1010.0    1/ 2
CAMBRIDGE MD     0848   81 87              1011.7R
LEWISETTA VA     0848   79 86  280/ 10/ 11 1011.1S
RAPPAHANNOCK LGT 0848          240/ 12/ 14 1012.2F
STINGRAY PT      0900   81 85  260/ 12/ 16 1011.3    1/ 2
YORK RVR RNG VA  0848   80     250/ 11/ 13 1012.2F
YORKTOWN VA      0848   79 83  240/  9/ 12 1011.5F
JAMESTOWN VA     0900      86  290/  8/ 10   N/A
DOMINION TERM VA 0848   80     250/ 13/ 16 1012.2F
KIPTOPEKE VA     0848      79  270/ 10/ 14   N/A
CHES BAY BRIDGE  0848   80 81  240/ 12/ 13 1012.1R
CAPE HENRY VA    0848   79     220/  8/ 12   N/A
WILLOUBY STN VA  0848   80     250/ 10/ 11 1012.3R
S CRANEY ISL VA  0848   78     230/  5/  8 1012.2F
CAPE HENRY BUOY  0900      72                N/A     2/ 8
1ST LANDING BUOY 0900   80 79              1012.1    1/ 3
64NM E OF VA BCH 0850   80 80  230/ 16/ 19 1012.9F   3/ 5   2/ 8
DUCK PIER NC     0848   81 59  240/ 17/ 20 1013.0F
44100 DUCK FRF   0805      73                N/A     2/ 9
44056 DUCK FRF   0900      62                N/A     2/11
OREGON INLET NC  0842   81 84  230/ 16/ 19 1013.8S
HATTERAS NC      0848   77 78  230/  9/ 11 1014.7S
DIAMOND SHLS NC  0850   82 84  250/ 19/ 21 1014.7S   4/ 4   2/ 9
CAPE LOOKOUT NC  0900   80     240/ 10/ 13 1015.1R
$$




USA.gov is the U.S. government's official web portal to all federal, state and local government web resources and services.